This is the latest recevied weather packets stored in our database for station/object N9BLE. If no packets are shown the sender has not sent any weather packets the latest 10 day(s).
| Time | Temp. | Humidity | Pressure | Rain* | Wind** | Luminosity | Snow |
|---|---|---|---|---|---|---|---|
| 1777561062 | 11.11° C | 52% | 1020.2 hPa | 0 mm | - | 221 W/m² | - |
| 1777560758 | 11.11° C | 55% | 1020 hPa | 0 mm | - | 191 W/m² | - |
| 1777560455 | 11.11° C | 51% | 1020 hPa | 0 mm | - | 112 W/m² | - |
| 1777560152 | 11.11° C | 53% | 1019.8 hPa | 0 mm | - | 210 W/m² | - |
| 1777559849 | 10.56° C | 52% | 1020.3 hPa | 0 mm | - | 167 W/m² | - |
| 1777559545 | 10.56° C | 54% | 1020 hPa | 0 mm | - | 144 W/m² | - |
| 1777559243 | 10° C | 57% | 1020 hPa | 0 mm | - | 136 W/m² | - |
| 1777558938 | 10° C | 55% | 1020.4 hPa | 0 mm | - | 99 W/m² | - |
| 1777558634 | 10° C | 60% | 1020.5 hPa | 0 mm | - | 148 W/m² | - |
| 1777558329 | 10° C | 62% | 1020.4 hPa | 0 mm | - | 158 W/m² | - |
| 1777558027 | 10° C | 64% | 1020.5 hPa | 0 mm | - | 145 W/m² | - |
| 1777557722 | 9.44° C | 60% | 1020.4 hPa | 0 mm | - | 107 W/m² | - |
| 1777557419 | 9.44° C | 63% | 1020.4 hPa | 0 mm | - | 79 W/m² | - |
| 1777557116 | 9.44° C | 66% | 1020.5 hPa | 0 mm | - | 73 W/m² | - |
| 1777556811 | 8.89° C | 64% | 1020.3 hPa | 0 mm | - | 151 W/m² | - |
| 1777556508 | 8.33° C | 70% | 1020.5 hPa | 0 mm | - | 97 W/m² | - |
| 1777556207 | 8.33° C | 66% | 1020.3 hPa | 0 mm | - | 106 W/m² | - |
| 1777555903 | 8.89° C | 67% | 1020.4 hPa | 0 mm | - | 119 W/m² | - |
| 1777555599 | 8.33° C | 67% | 1020.4 hPa | 0 mm | - | 159 W/m² | - |
| 1777555296 | 7.78° C | 73% | 1020.4 hPa | 0 mm | - | 121 W/m² | - |
| 1777554993 | 7.78° C | 74% | 1020.7 hPa | 0 mm | - | 74 W/m² | - |
| 1777554690 | 8.33° C | 77% | 1020.4 hPa | 0 mm | - | 89 W/m² | - |
| 1777554387 | 7.22° C | 82% | 1020.3 hPa | 0 mm | - | 124 W/m² | - |
| 1777554084 | 6.67° C | 80% | 1020.4 hPa | 0 mm | - | 51 W/m² | - |
| 1777553780 | 7.22° C | 79% | 1020.6 hPa | 0 mm | - | 39 W/m² | - |
* Rain latest hour (hover to see other rain measurements)
** Current wind speed in m/s (hover to see current wind gust speed)